Volver al catálogo

STARLINK-37499

ActivoComunicacionesVLEO
NORAD 69250·PAYLOAD·🇺🇸 United States

Lanzado May 29, 2026 desde Cape Canaveral Space Force Station

Loading…

Próximos Pases (próximas 24 horas)

TLE

ActualizadoSource: CelesTrak SupGP

Época: Sep 15, 2026, 04:14 UTC

1 69250C 26117N   26258.17687500 -.00012608  00000+0 -37254-3 0  2586
2 69250  53.1573 178.4485 0001320  89.1640 223.1618 15.34393749    11

Sigue STARLINK-37499 en tiempo real con AllMySat

Download on the App Store